User: anonymous
Location: Unspecified
(0.0000°N, 0.0000°E)
Time: 19:24:10
(UTC+02:00)
Language:

SWIFT - Orbit

View from above orbital plane
View from above orbital plane
View from above satellite
View from above satellite

Ground track
Ground track

The orbit data is extracted from the following two-line orbital elements,

1 28485U 04047A   14113.47238156  .00006383  00000-0  48326-3 0  6733
2 28485 020.5567 236.7672 0012893 142.5259 217.6074 14.98580400514970
Epoch (UTC): 23 April 2014 11:20:13
Eccentricity: 0.0012893
inclination: 20.5567°
perigee height: 562 km
apogee height: 580 km
right ascension of ascending node: 236.7672°
argument of perigee: 142.5259°
revolutions per day: 14.98580400
mean anomaly at epoch: 217.6074°
orbit number at epoch: 51497

The dashed part of the orbit path shows where the satellite is in the earth's shadow,  

DLR